This demonstration page uses our WeatherBlox Daily Observations layout. Learn more.

Left ArrowRight Arrow

Hourly Observations for October 23, 2018

Temp ( °F °C ) Dew Point ( °F °C ) Humidity (%) Winds ( mph kmh ) Pressure ( in mb ) Visibility ( mi km ) Precip ( " mm )
12:54 am 00:54 Clear 37 2.8 32 0 82 82 NNW 5 7 30.28 1025 10 16.0934 0 0
1:54 am 01:54 Clear 37 2.8 31 -0.6 79 79 N 5 7 30.29 1026 10 16.0934 0 0
2:54 am 02:54 Clear 41 5 32 0 70 70 NNW 6 9 30.29 1026 10 16.0934 0 0
3:54 am 03:54 Clear 42 5.6 31 -0.6 65 65 N 7 11 30.31 1026 10 16.0934 0 0
4:54 am 04:54 Clear 38 3.3 30 -1.1 73 73 N 3 6 30.32 1027 10 16.0934 0 0
5:54 am 05:54 Clear 35 1.7 30 -1.1 82 82 N 6 9 30.34 1028 10 16.0934 0 0
6:54 am 06:54 Clear 34 1.1 29 -1.7 82 82 N 6 9 30.37 1028 10 16.0934 0 0
7:54 am 07:54 Sunny 36 2.2 30 -1.1 79 79 N 5 7 30.38 1029 10 16.0934 0 0
8:54 am 08:54 Sunny 40 4.4 32 0 73 73 N 3 6 30.41 1030 10 16.0934 0 0
9:54 am 09:54 Sunny 47 8.3 33 0.6 59 59 E 9 15 30.43 1031 10 16.0934 0 0
10:54 am 10:54 Sunny 50 10 32 0 50 50 ENE 8 13 30.43 1030 10 16.0934 0 0
11:54 am 11:54 Sunny 55 12.8 33 0.6 44 44 undefined N/A 30.42 1030 10 16.0934 0 0
12:54 pm 12:54 Sunny 58 14.4 31 -0.6 36 36 ENE 6 9 30.4 1029 10 16.0934 0 0
1:54 pm 13:54 Sunny 60 15.6 30 -1.1 32 32 ENE 6 9 30.37 1029 10 16.0934 0 0
2:54 pm 14:54 Sunny 62 16.7 29 -1.7 29 29 VRB 5 7 30.35 1028 10 16.0934 0 0
3:54 pm 15:54 Sunny 63 17.2 29 -1.7 28 28 ENE 9 15 30.32 1027 10 16.0934 0 0
4:54 pm 16:54 Sunny 62 16.7 27 -2.8 26 26 ENE 8 13 30.32 1027 10 16.0934 0 0
5:54 pm 17:54 Sunny 56 13.3 32 0 40 40 ENE 7 11 30.33 1027 10 16.0934 0 0
6:54 pm 18:54 Clear 52 11.1 29 -1.7 41 41 E 7 11 30.32 1027 10 16.0934 0 0
7:54 pm 19:54 Clear 48 8.9 29 -1.7 48 48 E 5 7 30.33 1027 10 16.0934 0 0
8:54 pm 20:54 Clear 50 10 30 -1.1 46 46 Calm 30.32 1027 10 16.0934 0 0
9:54 pm 21:54 Clear 46 7.8 32 0 58 58 Calm 30.32 1027 10 16.0934 0 0
10:54 pm 22:54 Clear 44 6.7 29 -1.7 55 55 Calm 30.32 1027 10 16.0934 0 0
11:54 pm 23:54 Clear 45 7.2 30 -1.1 56 56 Calm 30.33 1027 10 16.0934 0 0

Powered by AerisWeather